| time (UTC) | temp F | wind direction | speed knots | gust knots | rain 1hr in | rain 24hr in | rain mn in | humidity % | barometer mb |
| 20260505123015 | 56 | 0.0 | 1.7 | 0.00 | 0.00 | 0.00 | 84 | 1013.9 | |
| 20260505120015 | 56 | 0.0 | 1.7 | 0.00 | 0.00 | 0.00 | 84 | 1013.8 | |
| 20260505113015 | 56 | 0.0 | 1.7 | 0.00 | 0.00 | 0.00 | 85 | 1013.6 | |
| 20260505100017 | 55 | 0.0 | 2.6 | 0.00 | 0.00 | 0.00 | 86 | 1013.0 | |
| 20260505093017 | 54 | 0.0 | 0.9 | 0.00 | 0.00 | 0.00 | 87 | 1012.8 | |
| 20260505090017 | 54 | 0.0 | 0.9 | 0.00 | 0.00 | 0.00 | 87 | 1012.6 | |
| 20260505083017 | 54 | 0.0 | 0.9 | 0.00 | 0.00 | 0.00 | 86 | 1012.4 | |
| 20260505080017 | 55 | 0.0 | 0.9 | 0.00 | 0.00 | 0.00 | 85 | 1012.5 | |
| 20260505073017 | 55 | 0.0 | 0.9 | 0.00 | 0.00 | 0.00 | 85 | 1012.2 | |
| 20260505070017 | 56 | 0.0 | 0.9 | 0.00 | 0.00 | 0.00 | 84 | 1012.0 | |
| 20260505063016 | 57 | 0.0 | 0.9 | 0.00 | 0.00 | 0.00 | 83 | 1011.7 | |
| 20260505060016 | 58 | 0.0 | 0.9 | 0.00 | 0.00 | 0.00 | 81 | 1011.3 | |
| 20260505053016 | 59 | 0.0 | 0.9 | 0.00 | 0.00 | 0.00 | 78 | 1010.9 | |
| 20260505040015 | 65 | 0.0 | 0.9 | 0.00 | 0.00 | 0.00 | 69 | 1009.9 | |
| 20260505033015 | 68 | 0.0 | 0.9 | 0.00 | 0.00 | 0.00 | 65 | 1009.3 | |
| 20260505030016 | 70 | 0.0 | 0.9 | 0.00 | 0.00 | 0.00 | 61 | 1009.2 | |
| 20260505023015 | 74 | 0.0 | 0.9 | 0.00 | 0.00 | 0.00 | 56 | 1008.9 | |
| 20260505020017 | 79 | 0.0 | 1.7 | 0.00 | 0.00 | 0.00 | 49 | 1008.9 | |
| 20260505013017 | 81 | 0.0 | 1.7 | 0.00 | 0.00 | 0.00 | 45 | 1008.9 | |
| 20260505010017 | 82 | 0.0 | 3.5 | 0.00 | 0.00 | 0.00 | 43 | 1009.0 | |
| 20260505003017 | 82 | 0.0 | 4.3 | 0.00 | 0.00 | 0.00 | 42 | 1009.0 | |
| 20260505000017 | 82 | 0.0 | 4.3 | 0.00 | 0.00 | 0.00 | 40 | 1009.1 | |
| 20260504233017 | 82 | 0.0 | 3.5 | 0.00 | 0.00 | 0.00 | 37 | 1009.3 | |
| 20260504230017 | 82 | 0.0 | 2.6 | 0.00 | 0.00 | 0.00 | 37 | 1009.3 | |
| 20260504223017 | 81 | 0.0 | 1.7 | 0.00 | 0.00 | 0.00 | 37 | 1009.5 | |
| 20260504220016 | 80 | 0.0 | 3.5 | 0.00 | 0.00 | 0.00 | 36 | 1009.8 | |
| 20260504213016 | 79 | 270 | 0.9 | 4.3 | 0.00 | 0.00 | 0.00 | 40 | 1009.9 |
| 20260504210016 | 77 | 270 | 0.9 | 4.3 | 0.00 | 0.00 | 0.00 | 45 | 1010.1 |
| 20260504203016 | 75 | 270 | 0.9 | 5.2 | 0.00 | 0.00 | 0.00 | 48 | 1010.3 |
| 20260504200016 | 75 | 270 | 0.9 | 5.2 | 0.00 | 0.00 | 0.00 | 48 | 1010.2 |
| 20260504193016 | 74 | 0.0 | 2.6 | 0.00 | 0.00 | 0.00 | 46 | 1010.3 | |
| 20260504190016 | 73 | 0.0 | 2.6 | 0.00 | 0.00 | 0.00 | 48 | 1010.3 | |
| 20260504183016 | 73 | 0.0 | 4.3 | 0.00 | 0.00 | 0.00 | 48 | 1010.5 | |
| 20260504180016 | 71 | 0.0 | 2.6 | 0.00 | 0.00 | 0.00 | 52 | 1010.7 | |
| 20260504173016 | 69 | 0.0 | 0.9 | 0.00 | 0.00 | 0.00 | 59 | 1010.7 |